Content
SEND FEEDBACK

Daily
Averages
Monthly
Summary
Canada

VANCOUVER, BRITISH COLUMBIA


Home > North America > Canada > British Columbia
Elevation: 7 feet     Latitude: 49 11N     Longitude: 123 10W

WEATHER
 
SELECT A DAY
Number of Records: 249,280;   Date Range: 5/15/97 - 7/27/14
 
SHARE

PRINT THIS DATA

[ ← Previous Day ]
WEATHER ALMANAC - JANUARY 8, 2013
[ Next Day → ]
[ °C ]   °F
Weather ElementAverageHighLow
Temperature43.7 °F48.2 °F (6:15 pm)39.2 °F (11:55 am)
Dewpoint41.7 °F48.2 °F (6:55 pm)37.4 °F (8:35 am)
Humidity92.6 %100 % (3:35 pm)87 % (12:35 am)
Barometer29.87 in30.13 in (2:35 am)29.61 in (9:15 pm)
Wind Speed4.4 mph12.7 mph (11:15 pm)
Wind Gust21.9 mph (2:35 pm)
Weather ElementAverage
Visibility6.7 mi
Wind DirectionESE (109.1 °)

Weather ElementTotal
Precipitation1.11 in
Heating Degree Days21.3 (Base 65)
Averaged from 67 records on January 8, 2013
WEATHER CONDITIONS BREAKOUT
WIND DIRECTION BREAKOUT
WEATHER BY HOUR - JANUARY 8, 2013
[ °C ]   °F
Local TimeTemperatureDewpointHumidityBarometerVisibilityWind DirectionWind SpeedGust SpeedPrecipitationEventsConditions
12:35 AM42.8 °F39.2 °F87 %30.12 in10.0 miSouth (170°)3.5 mphScattered Clouds
12:55 AM41.0 °F39.2 °F93 %30.11 in10.0 miSouth (180°)4.6 mphScattered Clouds
1:15 AM41.0 °F39.2 °F93 %30.11 in10.0 miCalmScattered Clouds
1:35 AM41.0 °F39.2 °F93 %30.11 in10.0 miNorthOvercast
1:55 AM41.0 °F39.2 °F93 %30.11 in10.0 miCalmOvercast
2:15 AM41.0 °F39.2 °F93 %30.11 in10.0 miSouth (180°)6.9 mphScattered Clouds
2:35 AM41.0 °F39.2 °F93 %30.13 in10.0 miSouth (180°)3.5 mphMostly Cloudy
2:55 AM42.8 °F39.2 °F87 %30.13 in10.0 miCalmMostly Cloudy
3:15 AM41.0 °F39.2 °F93 %30.12 in10.0 miCalmMostly Cloudy
3:35 AM41.0 °F39.2 °F93 %30.12 in10.0 miCalmOvercast
3:55 AM41.0 °F39.2 °F93 %30.11 in10.0 miCalmOvercast
4:15 AM41.0 °F39.2 °F93 %30.10 in9.0 miCalmMostly Cloudy
4:35 AM41.0 °F39.2 °F93 %30.10 in10.0 miCalmOvercast
4:55 AM41.0 °F39.2 °F93 %30.09 in10.0 miSouth (190°)6.9 mphMostly Cloudy
5:15 AM42.8 °F39.2 °F87 %30.08 in10.0 miSouth (180°)3.5 mphMostly Cloudy
5:35 AM42.8 °F39.2 °F87 %30.08 in10.0 miSouth (180°)3.5 mphScattered Clouds
5:55 AM42.8 °F39.2 °F87 %30.07 in9.0 miSouth (180°)3.5 mphScattered Clouds
6:15 AM42.8 °F39.2 °F87 %30.06 in10.0 miNorthPartly Cloudy
6:35 AM41.0 °F39.2 °F93 %30.05 in10.0 miCalmClear
6:55 AM41.0 °F39.2 °F93 %30.04 in10.0 miCalmClear
7:15 AM41.0 °F39.2 °F93 %30.03 in9.0 miCalmPartly Cloudy
7:35 AM42.8 °F39.2 °F87 %30.02 in10.0 miCalmScattered Clouds
8:15 AM42.8 °F39.2 °F87 %30.01 in8.0 miCalmRainLight Rain
8:35 AM41.0 °F37.4 °F87 %30.01 in5.0 miSouth (180°)4.6 mphRainLight Rain
8:55 AM41.0 °F37.4 °F87 %30.01 in5.0 miCalmRainLight Rain
9:15 AM41.0 °F39.2 °F93 %29.99 in6.0 miCalmRainLight Rain
9:35 AM41.0 °F39.2 °F93 %29.97 in5.0 miCalmRainLight Rain
9:55 AM41.0 °F39.2 °F93 %29.96 in3.0 miCalmRainLight Rain
10:15 AM41.0 °F39.2 °F93 %29.96 in3.0 miCalmRainRain
10:35 AM41.0 °F39.2 °F93 %29.95 in3.0 miCalmRainLight Rain
10:55 AM41.0 °F39.2 °F93 %29.94 in4.0 miCalmRainLight Rain
11:15 AM41.0 °F37.4 °F87 %29.91 in7.0 miCalmRainLight Rain
11:35 AM41.0 °F37.4 °F87 %29.90 in6.0 miCalmRainLight Rain
11:55 AM39.2 °F37.4 °F93 %29.89 in5.0 miEast (80°)5.8 mphRainLight Rain
12:15 PM41.0 °F37.4 °F87 %29.88 in6.0 miSSE (160°)3.5 mphRainLight Rain
12:35 PM41.0 °F37.4 °F87 %29.86 in7.0 miEast (100°)3.5 mphRainLight Rain
12:55 PM41.0 °F37.4 °F87 %29.84 in5.0 miESE (110°)5.8 mphRainLight Rain
1:15 PM41.0 °F39.2 °F93 %29.83 in5.0 miCalmRainLight Rain
1:35 PM41.0 °F39.2 °F93 %29.82 in5.0 miSouth (180°)3.5 mphRainLight Rain
1:55 PM42.8 °F41.0 °F93 %29.80 in5.0 miSouth (180°)6.9 mph16.1 mph0.01 inRainLight Rain
2:35 PM44.6 °F41.0 °F87 %29.76 in5.0 miSouth (190°)10.4 mph21.9 mph0.01 inRainLight Rain
2:55 PM44.6 °F41.0 °F87 %29.75 in5.0 miSouth (170°)6.9 mph18.4 mph0.01 inRainLight Rain
3:15 PM44.6 °F42.8 °F93 %29.72 in8.0 miSouth (180°)9.2 mph20.7 mphRainLight Rain
3:35 PM44.6 °F44.6 °F100 %29.70 in10.0 miSouth (180°)9.2 mph17.3 mphOvercast
3:55 PM44.6 °F44.6 °F100 %29.70 in9.0 miSouth (180°)10.4 mph19.6 mphRainLight Rain
4:15 PM46.4 °F44.6 °F93 %29.69 in5.0 miSouth (170°)8.1 mph17.3 mphRainLight Rain
4:35 PM46.4 °F44.6 °F93 %29.69 in5.0 miSouth (170°)6.9 mph0.03 inRainRain
4:55 PM46.4 °F46.4 °F100 %29.69 in5.0 miSouth (170°)3.5 mph0.09 inRainRain
5:15 PM46.4 °F46.4 °F100 %29.68 in4.0 miSouth (190°)4.6 mph0.03 inRainHeavy Rain
5:35 PM46.4 °F46.4 °F100 %29.66 in4.0 miSouth (180°)6.9 mph0.11 inRainRain
5:55 PM46.4 °F46.4 °F100 %29.65 in5.0 miSSW (200°)6.9 mph0.15 inRainRain
6:15 PM48.2 °F46.4 °F93 %29.64 in5.0 miCalm0.02 inRainRain
6:35 PM48.2 °F46.4 °F93 %29.63 in7.0 miSouth (190°)6.9 mph0.04 inRainLight Rain
6:55 PM48.2 °F48.2 °F100 %29.63 in5.0 miSouth (180°)6.9 mph0.06 inRainRain
7:15 PM48.2 °F48.2 °F100 %29.63 in5.0 miSSW (200°)9.2 mph0.01 inRainRain
7:55 PM48.2 °F46.4 °F93 %29.62 in5.0 miSouth (190°)9.2 mph0.04 inRainLight Rain
8:15 PM48.2 °F46.4 °F93 %29.62 in4.0 miSouth (190°)9.2 mph0.01 inRainRain
8:35 PM48.2 °F46.4 °F93 %29.62 in5.0 miSouth (190°)9.2 mph0.02 inRainRain
8:55 PM48.2 °F48.2 °F100 %29.62 in5.0 miSouth (190°)9.2 mph0.04 inRainRain
9:15 PM48.2 °F46.4 °F93 %29.61 in5.0 miSouth (180°)6.9 mph16.1 mph0.02 inRainRain
9:35 PM48.2 °F46.4 °F93 %29.62 in5.0 miSouth (190°)8.1 mph16.1 mph0.02 inRainRain
10:15 PM48.2 °F46.4 °F93 %29.62 in4.0 miSSW (200°)10.4 mph0.01 inRainRain
10:35 PM48.2 °F48.2 °F100 %29.62 in3.0 miSouth (190°)9.2 mph0.07 inRainRain
10:55 PM48.2 °F48.2 °F100 %29.63 in3.0 miSSW (200°)8.1 mph0.16 inRainHeavy Rain
11:15 PM48.2 °F46.4 °F93 %29.64 in5.0 miSouth (190°)12.7 mph20.7 mph0.03 inRainRain
11:35 PM48.2 °F46.4 °F93 %29.64 in5.0 miSSW (200°)10.4 mph0.05 inRainLight Rain
11:55 PM46.4 °F44.6 °F93 %29.65 in5.0 miSW (220°)9.2 mph18.4 mph0.07 inRainRain
Hourly data recorded from CZBB, located miles away from Vancouver, British Columbia







STORIES FROM OUR PARTNERS